Moab, UT

2:20 AM MDT on August 29, 2016 (GMT -0600)
Canyonlands

Weather History for KCNY - March, 2014

Change the Weather History Date:

Wednesday, March 12, 2014

  Actual Average Record
Temperature  
Mean Temperature 41 °F 43 °F  
Max Temperature 55 °F 57 °F 79 °F (1989)
Min Temperature 26 °F 30 °F 17 °F (1948)
Degree Days  
Heating Degree Days 24 22  
Month to date heating degree days 221 279  
Since 1 July heating degree days 4969 4688  
Cooling Degree Days 0 0  
Month to date cooling degree days 0 0  
Year to date cooling degree days 0 0  
Moisture  
Dew Point 7 °F    
Average Humidity 29    
Maximum Humidity 47    
Minimum Humidity 10    
Precipitation  
Precipitation 0.00 in 0.03 in 0.48 in (1965)
Month to date precipitation 0.31 0.33  
Year to date precipitation 0.64 1.49  
Sea Level Pressure  
Sea Level Pressure 30.28 in    
Wind  
Wind Speed 5 mph (North)    
Max Wind Speed 20 mph    
Max Gust Speed 28 mph    
Visibility 10 miles    
Events      
T = Trace of Precipitation, MM = Missing Value Source: NWS Daily Summary

Daily Weather History Graph

Daily Weather History Graph

Search for Another Location

Airport or City:

Trip Planner

Search our weather history database for the weather conditions in past years. The results will help you decide how hot, cold, wet, or windy it might be!

Date:

Astronomy

Mar. 12, 2014 Rise Set
Actual Time 7:34 AM MDT 7:23 PM MDT
Civil Twilight 7:08 AM MDT 7:49 PM MDT
Nautical Twilight 6:37 AM MDT 8:20 PM MDT
Astronomical Twilight 6:06 AM MDT 8:51 PM MDT
Moon 3:58 PM MDT (3/12) 5:06 AM MDT (3/12)
Length of Visible Light 12h 41m
Length of Day
11h 48m
Waxing Gibbous, 86% of the Moon is Illuminated
Mar 12
Waxing Gibbous
Mar 16
Full
Mar 23
Last Quarter
Mar 30
New
Apr 7
First Quarter

Hourly Weather History & Observations

Time (MDT) Temp. Windchill Dew Point Humidity Pressure Visibility Wind Dir Wind Speed Gust Speed Precip Events Conditions
12:53 AM 35.1 °F 29.3 °F 12.0 °F 39% 30.25 in 10.0 mi NE 6.9 mph - N/A   Clear
1:53 AM 33.1 °F 27.7 °F 12.9 °F 43% 30.26 in 10.0 mi NNW 5.8 mph - N/A   Clear
2:53 AM 32.0 °F 28.7 °F 10.9 °F 42% 30.29 in 10.0 mi NE 3.5 mph - N/A   Clear
3:53 AM 30.0 °F 25.2 °F 12.0 °F 47% 30.28 in 10.0 mi WSW 4.6 mph - N/A   Clear
4:53 AM 32.0 °F - 10.9 °F 42% 30.30 in 10.0 mi Calm Calm - N/A   Clear
5:53 AM 28.0 °F 24.2 °F 10.9 °F 49% 30.32 in 10.0 mi West 3.5 mph - N/A   Clear
6:53 AM 28.9 °F 23.9 °F 10.9 °F 47% 30.34 in 10.0 mi NW 4.6 mph - N/A   Clear
7:53 AM 28.9 °F 23.9 °F 10.9 °F 47% 30.37 in 10.0 mi NW 4.6 mph - N/A   Clear
8:53 AM 35.1 °F 29.3 °F 12.0 °F 39% 30.36 in 10.0 mi WNW 6.9 mph - N/A   Clear
9:53 AM 39.9 °F 35.1 °F 10.0 °F 29% 30.38 in 10.0 mi North 6.9 mph - N/A   Clear
10:18 AM 44.1 °F 37.7 °F 7.0 °F 22% 30.36 in 10.0 mi NE 12.7 mph - N/A   Clear
10:53 AM 45.0 °F 38.9 °F 6.1 °F 20% 30.37 in 10.0 mi NNE 12.7 mph - N/A   Clear
11:53 AM 46.9 °F - 6.1 °F 19% 30.36 in 10.0 mi ENE 17.3 mph - N/A   Clear
12:53 PM 50.0 °F - 6.1 °F 17% 30.32 in 10.0 mi East 15.0 mph - N/A   Clear
1:53 PM 50.0 °F - 6.1 °F 17% 30.30 in 10.0 mi East 6.9 mph - N/A   Clear
2:53 PM 51.1 °F - 3.9 °F 15% 30.26 in 10.0 mi SE 5.8 mph - N/A   Clear
3:53 PM 54.0 °F - 3.9 °F 13% 30.24 in 10.0 mi Calm Calm - N/A   Clear
4:53 PM 55.0 °F - 1.9 °F 12% 30.20 in 10.0 mi Variable 3.5 mph - N/A   Clear
5:53 PM 54.0 °F - -2.9 °F 10% 30.19 in 10.0 mi Variable 3.5 mph - N/A   Clear
6:53 PM 52.0 °F - -0.0 °F 12% 30.19 in 10.0 mi WNW 6.9 mph - N/A   Clear
7:53 PM 46.0 °F 41.4 °F 3.9 °F 18% 30.21 in 10.0 mi NW 9.2 mph - N/A   Clear
8:53 PM 39.9 °F - 6.1 °F 25% 30.22 in 10.0 mi Calm Calm - N/A   Clear
9:53 PM 39.0 °F - 6.1 °F 26% 30.21 in 10.0 mi Calm Calm - N/A   Clear
10:53 PM 37.0 °F - 7.0 °F 29% 30.20 in 10.0 mi Calm Calm - N/A   Clear
11:53 PM 30.9 °F - 7.0 °F 37% 30.21 in 10.0 mi Calm Calm - N/A   Clear